Regional Weather Roundup
Issued by NWS

Home | Current Version | Previous Version | Graphics & Text | Print | Product List | Glossary On
Versions: 1 2 3 4 5 6 7 8 9 10 11 12 13 14 15 16 17 18 19 20 21 22 23 24 25 26 27 28 29 30 31 32 33 34 35 36 37 38 39 40 41 42 43 44 45 46 47 48 49 50
002
ASUS44 KMEG 111710
RWRTN
TENNESSEE HOURLY STATE WEATHER ROUNDUP
NATIONAL WEATHER SERVICE MEMPHIS TN
1100 AM CST THU FEB 11 2016

TNZ002-004-019-021-049-052-054-088>092-111800-
WEST TENNESSEE

CITY           SKY/WX    TMP DP  RH WIND       PRES   REMARKS
MEMPHIS INTL   MOSUNNY   44  20  38 NE8       30.18
NWS MEMPHIS      N/A     40 N/A N/A MISG        N/A
JACKSON        SUNNY     43  16  33 E9        30.22
DYERSBURG      SUNNY     37  19  48 NE14      30.27R WCI  29
UNION CITY     SUNNY     36  23  60 NE10      30.26R WCI  28
PARIS          SUNNY     34  21  60 NE10      30.26S WCI  26
LEXINGTON      SUNNY     39  18  41 NE12      30.21R WCI  32
$$

TNZ008-025-027-028-033-062-065-066-111800-
NORTH MIDDLE TENNESSEE

CITY           SKY/WX    TMP DP  RH WIND       PRES   REMARKS
NASHVILLE      MOSUNNY   35  22  58 NE5       30.27  WCI  31
CLARKSVILLE    SUNNY     32  22  66 NE5       30.29  WCI  27
SMYRNA         SUNNY     35  25  67 N7        30.28  WCI  29
COOKEVILLE     SUNNY     36  19  51 N8        30.22S WCI  29
CROSSVILLE     SUNNY     32  19  58 NE5       30.19  WCI  27
$$

TNZ061-075-076-078-094-096-097-111800-
SOUTH MIDDLE TENNESSEE

CITY           SKY/WX    TMP DP  RH WIND       PRES   REMARKS
FAYETTEVILLE   SUNNY     43  18  36 N8        30.17F
TULLAHOMA      SUNNY     37  21  52 NE7       30.20S WCI  32
WINCHESTER     SUNNY     41  19  42 VRB3      30.19F
MCMINNVILLE    CLOUDY    34  23  64 NE8       30.22S WCI  27
COLUMBIA       SUNNY     37  25  60 E9        30.20S WCI  31
SHELBYVILLE    SUNNY     37  25  60 E8        30.23S WCI  31
$$

TNZ017-018-042-046-047-111800-
NORTHEAST TENNESSEE

CITY           SKY/WX    TMP DP  RH WIND       PRES   REMARKS
TRI CITIES     MOSUNNY   29  15  56 NW7       30.20  WCI  22
$$

TNZ012-013-036-069-073-074-111800-
CENTRAL EAST TENNESSEE

CITY           SKY/WX    TMP DP  RH WIND       PRES   REMARKS
KNOXVILLE      MOSUNNY   36  19  50 VRB3      30.23
OAK RIDGE      SUNNY     36  18  48 VRB3      30.25
GATLINBURG     SUNNY     34  18  51 VRB3      30.23R
MORRISTOWN     PTSUNNY   32  18  55 VRB6      30.21S WCI  26
$$

TNZ083-085-099-111800-
SOUTHEAST TENNESSEE

CITY           SKY/WX    TMP DP  RH WIND       PRES   REMARKS
CHATTANOOGA    MOSUNNY   41  19  41 NE7       30.22
$$

SKY/WX REPORTED AS FAIR MEANS FEW OR NO CLOUDS BELOW
12 THOUSAND FEET.





USA.gov is the U.S. government's official web portal to all federal, state and local government web resources and services.